CAPE
767 741 814 686 1143 1075 928 1264 969 1196 1128 1033 905 853 637 378 378 439 413 301 263 218 254 355 369 266 210 190 188 176 218 506 926 871 722 749 594 724 1164 1123 1082 1030 1031 426 383 293 169 72 50 14 0 0 0 0 0 0 0 0 0 0 156 214 60 8 4 1 0 0 0 0 0 0 0 0 0 0 0 0 0 0 0 0 0 0 0
1134 979 850 772 1065 1058 1084 1009 1312 1023 1127 1111 964 619 404 371 462 394 328 207 212 196 174 283 245 243 216 214 230 208 277 452 461 473 519 408 858 672 1065 1240 1031 1009 1014 761 435 389 250 131 83 46 1 8 0 0 0 0 0 0 0 2 88 106 124 51 22 1 0 0 0 0 0 0 0 0 0 0 0 0 0 0 0 0 0 0 0
1658 1391 1241 713 1196 1673 1229 1232 1088 1267 1190 884 598 364 380 453 516 404 286 182 46 60 76 72 195 215 187 114 144 195 218 263 416 218 198 318 640 898 768 1264 988 978 949 768 1110 437 436 266 112 42 24 17 1 0 0 0 0 0 1 3 5 38 74 94 5 2 0 0 0 0 0 0 0 0 0 0 0 0 0 0 0 0 0 0 0
1616 1566 1386 1212 1305 762 894 1019 1216 1305 1097 999 1249 677 717 315 296 302 78 189 0 51 71 61 52 44 158 48 72 146 190 266 368 378 332 273 313 807 911 600 1036 737 1048 863 769 971 576 442 270 116 134 22 17 0 0 0 0 0 0 6 2 11 35 158 23 7 1 0 0 0 0 0 0 0 0 0 0 0 0 0 0 0 0 0 0
1645 1775 1654 1389 1514 1451 1371 1289 1312 1748 1409 1390 973 822 798 489 242 110 50 37 97 29 62 94 108 92 74 22 48 78 157 156 227 306 257 182 189 300 1217 780 583 869 665 974 834 860 934 679 422 312 219 98 38 3 0 0 0 0 0 1 3 3 1 107 133 34 1 0 0 0 0 0 0 0 0 0 0 0 0 0 0 0 0 0 0
1919 1971 1749 1470 1522 1556 1486 1443 1428 1656 1864 1560 991 682 864 850 226 27 18 20 65 82 22 25 55 80 116 119 80 81 132 162 164 159 273 218 184 163 302 803 859 602 529 1142 846 744 783 915 598 438 394 246 128 44 17 0 0 0 0 0 1 2 2 0 117 98 26 0 0 0 0 0 0 0 0 0 0 0 0 0 0 0 0 0 0
1824 1945 1694 1150 922 1348 1674 1619 1507 1519 1606 1604 1045 564 868 1136 300 92 97 19 51 51 89 54 69 42 135 175 135 122 151 137 98 112 240 253 241 283 262 325 479 949 637 538 944 728 645 802 919 558 384 364 207 125 109 56 29 7 0 0 0 0 0 0 12 194 34 20 0 1 0 0 0 0 0 0 0 0 0 0 0 0 0 0 0
1630 1885 1937 1786 1429 1469 1616 1637 1500 1453 1453 1657 1177 739 690 1098 941 306 275 57 125 194 198 122 92 139 262 377 288 240 228 125 163 128 201 265 180 252 315 302 307 372 819 935 826 703 571 618 755 920 780 458 378 246 255 195 88 88 9 0 0 0 0 0 0 168 151 41 7 1 0 0 0 0 0 0 0 0 0 0 0 0 0 0 0
1938 1905 1967 1887 1639 1545 1607 1627 1450 1433 1346 1644 1241 781 850 808 1527 918 607 228 145 47 114 318 651 483 574 701 298 302 374 288 230 163 119 194 131 182 164 279 295 361 545 551 863 1034 676 574 610 614 803 876 612 386 338 312 195 268 111 31 13 3 0 0 0 19 215 141 51 9 3 1 0 0 0 0 0 0 0 0 0 0 0 0 0
1786 1673 1790 1824 1722 1643 1568 1616 1389 1060 1538 1243 823 832 871 823 942 898 731 872 1280 1122 876 1174 837 886 667 596 774 651 458 356 152 286 188 143 149 214 194 288 303 220 358 456 489 744 1126 550 541 435 476 604 791 609 376 404 313 366 292 143 16 44 28 0 0 8 63 220 117 38 5 2 0 0 0 0 0 0 0 0 0 0 0 0 0
1588 1550 1774 1601 1626 1651 1560 1612 1638 951 869 790 835 757 1008 1101 1188 1847 1902 1711 980 981 1060 873 622 751 470 842 429 435 800 903 445 327 146 139 166 152 127 236 321 236 446 374 352 465 1248 865 617 481 487 360 484 794 590 527 474 357 349 199 134 79 89 28 1 1 37 228 212 111 19 0 0 0 0 0 0 0 0 0 0 0 0 0 0
638 616 663 737 1382 1600 1757 1413 1218 1001 850 818 646 787 893 893 741 1073 1822 1185 852 733 941 771 615 1153 1568 1357 1186 1105 1162 795 634 338 237 198 212 195 140 141 270 301 270 384 411 402 374 1119 944 677 537 450 287 453 672 680 636 670 347 248 244 141 203 199 143 22 2 40 236 200 101 0 0 0 0 0 0 0 0 0 0 0 0 0 0
210 220 210 418 497 805 1282 1613 1310 771 792 804 613 559 838 1020 1186 768 1511 1544 1234 1452 1342 1043 1484 1034 1364 1402 1755 1403 1092 1117 957 596 564 418 543 324 436 302 266 155 378 241 293 232 399 408 822 821 791 924 303 216 366 475 570 495 728 515 288 250 191 323 327 247 40 1 99 219 161 6 0 0 0 0 0 0 0 0 0 0 0 0 0
3 25 79 165 248 308 319 368 724 728 811 530 621 648 628 860 1234 872 1137 1148 1336 1289 1222 1172 1159 930 693 780 905 1461 1234 862 781 486 1212 413 1034 757 778 620 426 497 489 436 217 300 286 363 388 330 281 297 676 507 316 509 518 502 696 852 732 453 319 358 506 392 225 72 14 274 242 44 0 0 0 0 0 0 0 0 0 0 0 0 0
8 13 2 18 22 53 207 394 328 838 857 879 683 622 725 762 682 607 688 689 745 610 1182 1155 1048 922 896 632 915 499 1225 1030 840 559 564 773 818 748 626 382 468 414 877 874 716 804 467 258 366 398 470 334 386 659 583 338 470 531 536 688 858 924 612 556 575 617 444 234 85 157 334 118 12 0 0 0 0 0 0 0 0 0 0 0 0
19 4 1 8 13 42 57 158 250 325 745 668 646 940 1003 828 644 741 584 584 635 667 603 729 814 989 800 733 671 370 320 434 816 1298 822 544 531 730 935 574 584 393 299 634 733 1036 987 750 375 490 451 495 292 218 952 706 567 393 212 380 513 679 857 696 672 527 742 570 304 108 451 233 73 6 0 0 0 0 0 0 0 0 0 0 0
6 1 0 0 0 6 12 38 93 141 140 219 719 549 640 362 674 752 508 336 396 462 578 590 552 831 1228 673 400 403 492 905 929 889 1079 1002 590 745 659 569 772 780 445 673 232 326 738 966 862 555 748 537 568 489 394 256 873 871 557 215 314 496 770 886 752 710 697 782 576 242 531 376 167 41 1 0 0 0 0 0 0 0 0 0 0
1 0 0 0 0 2 5 1 4 18 1 24 53 92 207 476 625 805 980 839 518 444 501 586 469 606 537 886 548 602 728 620 503 222 1178 913 816 827 712 751 456 622 628 606 736 698 224 267 991 1260 754 644 616 571 550 380 494 831 1150 851 132 139 364 586 829 831 751 624 666 493 551 660 282 92 13 0 0 0 0 0 0 0 0 0 0
20 9 0 0 0 0 0 2 1 0 0 1 8 4 4 20 188 318 409 459 692 647 409 600 665 430 490 795 664 710 677 655 400 197 378 877 1257 859 878 907 1034 896 994 875 434 426 774 764 315 587 929 858 908 868 541 444 233 286 211 699 594 248 5 7 404 886 907 789 514 541 446 685 439 167 58 4 0 0 0 0 0 0 0 0 0
33 4 0 0 0 0 0 0 0 0 0 0 3 3 1 0 3 24 39 196 198 200 118 289 375 250 507 567 601 615 666 660 552 611 228 199 939 1210 628 380 874 1167 1037 987 763 1392 1700 1229 410 833 423 695 987 540 438 476 388 366 524 378 640 482 394 300 149 178 576 945 778 521 440 382 474 304 118 32 1 0 0 0 0 0 0 0 0
19 23 1 0 0 0 0 0 0 0 0 0 1 2 11 18 12 22 13 25 22 7 149 88 45 101 62 206 76 137 348 550 541 518 253 137 92 246 396 310 596 965 1140 908 751 1301 1138 1098 850 711 1146 882 1082 637 617 512 919 729 754 484 588 528 437 365 330 283 12 132 711 987 602 402 326 458 232 106 24 2 0 0 0 0 0 0 0
24 0 0 0 0 0 0 0 0 0 0 0 0 0 0 0 0 0 1 2 7 15 10 0 0 0 0 0 1 5 14 35 326 253 51 157 72 43 45 330 353 263 611 811 708 400 232 433 794 631 530 1148 925 864 753 280 490 322 966 746 667 774 620 393 357 328 168 0 45 540 1051 812 309 263 421 217 108 27 1 0 0 0 1 1 1
1 0 0 0 0 0 0 0 0 0 0 0 0 0 0 0 0 0 0 4 0 0 0 0 0 0 0 0 0 0 16 4 8 0 0 0 0 0 0 0 0 9 43 51 56 4 51 155 26 12 98 124 231 498 1204 466 344 568 648 500 714 773 728 523 87 0 0 0 0 103 493 855 809 510 348 413 278 136 58 6 1 1 1 2 1
0 0 0 0 0 0 0 0 0 0 0 0 0 0 0 0 0 0 0 0 0 0 0 0 0 0 0 0 0 0 0 0 0 0 0 0 0 0 0 0 0 0 0 0 0 0 17 9 0 0 91 147 154 156 278 470 796 249 352 381 416 505 478 202 0 0 0 0 0 0 157 539 706 782 619 274 358 289 193 111 19 2 1 1 4
0 0 0 0 0 0 0 0 0 0 0 0 0 0 0 0 0 0 0 0 0 0 0 0 0 0 0 0 0 0 0 0 0 0 0 0 0 0 0 0 0 0 0 0 0 0 0 0 0 12 7 0 19 59 83 190 730 407 377 412 346 245 125 0 0 0 0 0 0 0 0 11 396 512 628 554 242 375 316 238 56 3 0 0 4
0 0 0 0 0 0 0 0 0 0 0 0 0 0 0 0 0 0 0 0 0 0 0 0 0 0 0 0 0 0 0 0 0 0 0 0 0 0 0 0 0 0 0 0 0 0 0 0 0 0 0 2 23 85 146 140 648 249 0 108 488 91 79 0 0 26 101 111 118 125 119 101 90 63 191 390 457 294 234 222 9 51 0 0 0
11 0 0 0 0 0 0 0 0 0 0 0 0 0 0 0 0 0 0 0 0 0 0 0 0 0 0 0 0 0 0 0 0 0 0 0 0 0 0 0 0 0 0 0 0 0 0 0 0 0 0 1 17 78 127 213 220 0 0 431 227 20 0 0 0 0 22 93 108 122 130 129 122 100 12 0 258 326 242 178 0 7 0 0 0
89 27 0 0 0 0 0 0 0 0 0 0 0 0 0 0 0 0 0 0 0 0 0 0 0 0 0 0 0 0 0 0 0 0 0 0 0 0 0 0 0 0 0 0 0 0 0 0 0 0 0 0 0 9 21 96 161 0 0 42 108 362 0 0 0 0 0 0 30 68 38 78 68 86 63 0 0 41 106 229 173 126 44 23 0
162 149 0 0 1 1 0 0 0 0 0 0 0 0 0 0 0 0 0 0 0 0 0 0 0 0 0 0 0 0 0 0 0 0 0 0 0 0 0 0 0 0 0 0 0 0 0 0 0 0 0 0 0 0 0 0 0 0 0 0 0 13 164 0 0 0 0 0 0 0 0 0 50 51 62 15 8 5 0 0 0 100 28 0 0
196 268 15 9 21 0 0 0 0 0 0 0 0 0 0 0 0 0 0 0 0 0 0 0 0 0 0 0 0 0 0 0 0 0 0 0 0 0 0 0 0 0 0 0 0 0 0 0 0 0 0 0 0 0 0 0 0 0 0 0 0 0 0 0 0 0 0 0 0 0 0 0 18 55 38 6 6 8 5 0 0 0 84 80 33
210 402 124 76 49 8 29 10 1 0 0 0 0 0 0 0 0 0 0 0 0 0 0 0 0 0 0 0 0 0 0 0 0 0 0 0 0 0 0 0 0 0 0 0 0 0 0 0 0 0 0 0 0 0 0 0 0 0 0 0 0 0 0 3 0 0 0 0 0 0 0 0 0 0 0 0 7 9 6 0 0 0 0 0 13
255 493 185 142 94 52 25 32 14 0 0 0 0 0 0 0 0 0 0 0 0 0 0 0 0 0 0 0 0 0 0 0 0 0 0 0 0 0 0 0 0 0 0 0 0 0 0 0 0 0 0 0 0 0 0 0 0 0 0 0 0 0 0 0 0 0 0 0 0 0 0 0 0 0 0 0 0 0 0 0 0 0 0 0 0
290 530 257 167 122 113 62 42 36 10 0 0 0 0 0 0 0 0 0 0 0 0 0 0 0 0 0 0 0 0 0 0 0 0 0 0 0 0 0 0 0 0 0 0 0 0 0 0 0 0 0 0 0 0 0 0 0 0 0 0 0 0 0 0 0 0 0 0 0 0 0 0 0 0 0 0 0 0 0 0 0 0 0 0 0
300 463 320 236 170 149 88 86 76 23 0 0 0 0 0 0 0 0 0 0 0 0 0 0 0 0 0 0 0 0 0 0 0 0 0 0 0 0 0 0 0 0 0 0 0 0 0 0 0 0 0 0 0 0 0 0 0 0 0 0 0 0 0 0 0 0 0 0 0 0 0 0 0 0 0 0 0 0 0 0 0 0 0 0 0
304 376 300 281 245 222 171 148 116 73 23 1 0 0 0 0 0 0 0 0 0 0 0 0 0 0 0 0 0 0 0 0 0 0 0 0 0 0 0 0 0 0 0 0 0 0 0 0 0 0 0 0 0 0 0 0 0 0 0 0 0 0 0 0 0 0 0 0 0 0 0 0 0 0 0 0 0 0 0 0 0 0 0 0 0
47 87 35 8 292 317 266 218 186 129 69 17 1 0 0 0 0 0 0 0 0 0 0 0 0 0 0 0 0 0 0 0 0 0 0 0 0 0 0 0 0 0 0 0 0 0 0 0 0 0 0 0 0 0 0 0 0 0 0 0 0 0 0 0 0 0 0 0 0 0 0 0 0 0 0 0 0 0 0 0 0 0 0 0 0
464 687 577 129 363 371 376 300 256 200 125 53 15 0 0 0 0 0 0 0 0 0 0 0 0 0 0 0 0 0 0 0 0 0 0 0 0 0 0 0 0 0 0 0 0 0 0 0 0 0 0 0 0 0 0 0 0 0 0 0 0 0 0 0 0 0 0 0 0 0 0 0 0 0 0 0 0 0 0 0 0 0 0 0 0
25 346 440 472 334 395 433 383 339 270 204 115 48 8 0 0 0 1 4 0 0 0 0 0 0 0 0 0 0 0 0 0 0 0 0 0 0 0 0 0 0 0 0 0 0 0 0 0 0 0 0 0 0 0 0 0 0 0 0 0 0 0 0 0 0 0 0 0 0 0 0 0 0 0 0 0 0 0 0 0 0 0 0 0 0
514 234 122 411 319 426 495 496 411 342 241 136 96 43 1 0 0 16 21 13 0 0 0 0 0 0 0 0 0 0 0 0 0 0 0 0 0 0 0 0 0 0 0 0 0 0 0 0 0 0 0 0 0 0 0 0 0 0 0 0 0 0 0 0 0 0 0 0 0 0 0 0 0 0 0 0 0 0 0 0 0 0 0 0 0
543 530 419 127 106 98 504 554 463 373 178 155 64 54 146 118 99 29 20 19 2 0 0 0 0 0 0 0 0 0 0 0 0 0 0 0 0 0 0 0 0 0 0 0 0 0 0 0 0 0 0 0 0 0 0 0 0 0 0 0 0 0 0 0 0 0 0 0 0 0 0 0 0 0 0 0 0 0 0 0 0 0 0 0 0
684 736 571 353 666 657 703 657 528 304 47 71 105 119 190 171 155 138 48 8 4 0 0 0 0 0 0 0 0 0 0 0 0 0 0 0 0 0 0 0 0 0 0 0 0 0 0 0 0 0 0 0 0 0 0 0 0 0 0 0 0 0 0 0 0 0 0 0 0 0 0 0 0 0 4 0 0 0 0 0 0 0 0 0 0
876 745 600 757 417 594 775 422 123 84 68 63 76 18 169 177 176 56 74 65 0 0 0 0 0 0 0 0 0 0 0 0 0 0 0 0 0 0 0 0 0 0 0 0 0 0 0 0 0 0 0 0 0 0 0 0 0 0 0 0 0 0 0 0 0 0 0 0 0 0 0 0 0 0 0 0 2 12 5 0 0 0 0 0 0
883 858 642 570 781 555 696 420 188 184 172 105 114 88 210 267 268 65 63 42 30 15 0 0 0 0 0 0 0 0 0 0 0 0 0 0 0 0 0 0 0 0 0 0 0 0 0 0 0 0 0 0 0 0 0 0 0 0 0 0 0 0 0 0 0 0 0 0 0 0 0 0 0 0 0 0 3 25 114 77 4 0 0 0 0
600 721 844 748 705 744 801 314 305 106 98 154 150 139 194 316 379 207 89 81 90 49 1 0 0 0 0 0 0 0 0 0 0 0 0 0 0 0 0 0 0 0 0 0 0 0 0 0 0 0 0 0 0 0 0 0 0 0 0 0 0 0 0 0 0 0 0 0 0 0 0 0 0 0 0 0 0 1 11 10 18 19 2 0 0
523 522 566 690 698 678 619 428 340 270 49 12 99 145 399 207 101 94 110 57 38 65 5 0 0 0 0 0 0 0 0 0 0 0 0 0 0 0 0 0 0 0 0 0 0 0 0 0 0 0 0 0 0 0 0 0 0 0 0 0 0 0 0 0 0 0 0 0 0 0 0 0 0 0 0 0 0 0 0 0 2 11 10 0 0
463 536 507 516 648 650 604 509 331 179 80 0 164 281 326 333 285 217 101 1 0 0 0 0 0 0 0 0 0 0 0 0 0 0 0 0 0 0 0 0 0 0 0 0 0 0 0 0 0 0 0 0 0 0 0 0 0 0 0 0 0 0 0 0 0 0 0 0 0 0 0 0 0 0 0 0 0 0 0 43 2 7 0 0 0
346 412 510 519 536 620 538 498 272 186 4 0 0 10 86 102 152 8 6 0 0 0 0 0 0 0 0 0 0 0 0 0 0 0 0 0 0 0 0 0 0 0 0 0 0 0 0 0 0 0 0 0 0 0 0 0 0 0 0 0 0 0 0 0 0 0 0 0 0 0 0 0 0 0 0 0 0 0 0 2 11 22 16 0 0
131 252 291 330 496 606 545 437 462 0 13 0 8 3 4 57 10 17 0 0 0 0 0 0 0 0 0 0 0 0 0 0 0 0 0 0 0 0 0 0 0 0 0 0 0 0 0 1 0 0 2 2 2 1 0 0 0 0 0 0 0 0 0 0 0 0 0 0 0 0 0 0 0 0 0 0 0 0 0 35 13 22 20 4 0
137 182 253 251 342 433 419 362 165 0 0 0 1 28 58 18 6 12 2 2 3 2 0 0 0 0 0 0 0 0 0 0 0 0 0 0 0 0 0 0 0 0 0 0 0 0 0 0 0 0 0 0 0 0 0 0 0 0 0 0 0 0 0 0 0 0 0 0 0 0 0 0 0 0 0 0 0 0 0 56 18 28 20 17 0
138 188 202 178 207 298 322 378 0 0 0 0 5 31 14 7 7 2 1 0 3 0 1 0 0 0 0 0 0 0 0 0 0 0 0 0 0 0 0 0 0 0 0 0 0 0 0 0 0 0 0 0 0 0 0 0 0 0 0 0 0 2 1 0 1 0 0 0 0 0 0 0 0 0 0 0 0 0 0 0 35 14 24 21 6
167 151 102 166 279 268 271 53 0 0 0 17 62 37 11 17 5 6 0 1 9 3 1 2 1 0 0 0 0 0 0 0 0 0 0 0 0 0 0 0 0 0 0 0 0 0 0 0 1 4 0 2 0 0 0 0 0 0 0 0 0 0 0 0 0 1 0 0 0 0 0 0 0 0 0 0 1 0 8 7 26 10 13 11 2
Wind_Speed
17 15 19 14 12 12 11 15 13 12 10 16 14 16 13 16 18 18 18 18 19 19 19 17 18 18 18 26 30 28 28 27 24 23 21 23 26 27 27 26 28 28 29 29 27 27 27 nan nan nan nan nan nan nan nan nan nan nan nan nan 25 24 nan nan nan nan nan nan nan nan nan nan nan nan nan nan nan nan nan nan nan nan nan nan nan
18 16 17 21 13 16 13 18 15 15 13 15 18 11 14 17 17 17 17 19 19 21 19 18 17 17 17 24 30 29 30 28 25 23 22 22 25 24 25 26 27 27 28 28 26 26 27 26 nan nan nan nan nan nan nan nan nan nan nan nan nan 26 24 nan nan nan nan nan nan nan nan nan nan nan nan nan nan nan nan nan nan nan nan nan nan
20 16 18 22 14 14 14 16 16 13 17 15 15 12 15 17 17 18 17 18 nan nan nan nan 16 18 16 21 28 31 29 28 25 22 22 21 22 23 23 26 24 25 25 28 28 26 26 27 25 nan nan nan nan nan nan nan nan nan nan nan nan nan nan nan nan nan nan nan nan nan nan nan nan nan nan nan nan nan nan nan nan nan nan nan nan
18 17 18 20 22 16 13 16 15 18 17 12 15 14 15 16 17 17 nan 21 nan nan nan nan nan nan 16 nan nan 31 30 29 26 23 22 22 20 22 24 23 23 23 24 24 26 27 26 26 26 25 25 nan nan nan nan nan nan nan nan nan nan nan nan 25 nan nan nan nan nan nan nan nan nan nan nan nan nan nan nan nan nan nan nan nan nan
22 19 19 21 21 19 17 16 16 18 16 15 14 15 15 16 16 17 nan nan nan nan nan nan 14 nan nan nan nan nan 30 28 26 25 23 22 21 22 23 22 22 22 21 23 24 24 25 26 25 24 24 nan nan nan nan nan nan nan nan nan nan nan nan 26 25 nan nan nan nan nan nan nan nan nan nan nan nan nan nan nan nan nan nan nan nan
25 23 21 19 20 19 16 17 16 16 17 17 16 16 16 17 18 nan nan nan nan nan nan nan nan nan 17 18 nan nan 31 29 28 27 26 24 23 22 21 22 23 23 22 21 21 23 24 24 24 23 23 24 24 nan nan nan nan nan nan nan nan nan nan nan 26 nan nan nan nan nan nan nan nan nan nan nan nan nan nan nan nan nan nan nan nan
25 24 23 19 18 17 17 17 17 16 17 18 17 17 18 17 14 nan nan nan nan nan nan nan nan nan 19 19 21 28 32 31 nan 28 27 27 26 24 24 22 25 25 24 23 21 21 21 22 20 20 21 22 22 22 22 nan nan nan nan nan nan nan nan nan nan 25 nan nan nan nan nan nan nan nan nan nan nan nan nan nan nan nan nan nan nan
24 23 21 19 18 18 19 17 18 17 17 19 18 17 20 15 12 10 16 nan 17 18 19 19 nan 19 21 21 21 25 32 34 33 31 29 28 27 26 25 23 23 22 24 24 23 21 19 19 19 19 19 19 20 20 20 20 nan nan nan nan nan nan nan nan nan 26 26 nan nan nan nan nan nan nan nan nan nan nan nan nan nan nan nan nan nan
25 25 23 20 19 18 18 18 17 17 18 20 19 18 17 17 15 13 14 15 16 nan 18 21 22 22 21 22 23 23 28 33 33 33 30 29 28 27 27 25 23 24 25 24 24 23 20 18 18 18 18 18 19 19 19 19 19 21 20 nan nan nan nan nan nan nan 25 25 nan nan nan nan nan nan nan nan nan nan nan nan nan nan nan nan nan
26 26 23 22 21 19 19 18 18 17 20 25 19 15 15 15 17 14 16 16 21 24 25 23 22 21 19 21 28 28 30 31 31 33 32 30 31 29 28 28 27 26 25 24 22 24 24 19 17 18 17 18 18 18 18 18 19 22 19 18 nan nan nan nan nan nan nan 25 25 nan nan nan nan nan nan nan nan nan nan nan nan nan nan nan nan
28 27 25 23 23 21 18 18 19 23 24 24 16 15 17 18 14 17 19 19 22 21 19 17 17 15 21 28 24 29 31 34 33 32 33 32 34 32 30 30 31 30 28 26 25 23 25 23 21 20 19 16 16 17 16 16 17 17 18 16 17 nan nan nan nan nan nan 24 23 24 nan nan nan nan nan nan nan nan nan nan nan nan nan nan nan
27 27 25 23 23 22 20 20 21 30 29 21 17 15 18 18 16 13 17 19 20 18 19 17 15 17 21 20 27 26 32 32 30 29 31 31 32 36 34 32 32 32 30 28 27 25 23 26 24 22 20 19 15 15 15 15 15 16 15 15 16 15 17 17 19 nan nan nan 21 21 23 nan nan nan nan nan nan nan nan nan nan nan nan nan nan
28 28 26 26 23 23 23 23 28 31 29 22 18 17 16 18 20 17 16 17 18 20 23 20 19 21 23 22 24 27 26 28 28 30 31 33 34 32 33 33 34 32 32 30 28 27 27 25 25 23 20 24 19 16 16 15 16 14 13 13 13 14 15 15 16 17 nan nan nan 20 22 nan nan nan nan nan nan nan nan nan nan nan nan nan nan
nan nan nan 25 26 25 24 24 28 29 25 22 17 18 18 19 21 20 18 17 19 22 22 22 21 21 24 23 22 23 22 22 25 28 39 35 35 36 38 35 33 33 34 33 31 30 29 29 28 24 24 25 26 22 19 18 16 14 13 12 11 12 13 13 14 14 15 nan nan 20 22 nan nan nan nan nan nan nan nan nan nan nan nan nan nan
nan nan nan nan nan nan 27 27 26 28 26 22 18 18 22 22 22 22 20 19 22 19 26 22 24 25 24 24 22 21 22 19 21 22 28 32 35 33 35 36 37 36 34 34 34 33 32 32 31 29 28 26 29 28 23 21 20 18 15 14 13 12 11 11 13 13 14 15 nan 18 23 24 nan nan nan nan nan nan nan nan nan nan nan nan nan
nan nan nan nan nan nan nan 28 28 27 26 26 21 19 22 24 24 23 23 23 23 25 25 20 22 25 23 22 23 22 19 20 21 22 25 29 36 36 37 39 41 38 38 40 35 35 36 35 33 34 32 30 29 30 28 27 24 24 20 17 15 14 12 11 11 13 14 14 19 18 23 24 nan nan nan nan nan nan nan nan nan nan nan nan nan
nan nan nan nan nan nan nan nan nan 28 26 25 25 24 27 28 26 23 22 23 26 27 24 25 20 24 25 24 24 21 20 23 23 20 23 27 32 36 41 41 40 41 39 38 42 43 37 34 37 36 36 33 32 31 30 29 30 27 25 22 19 17 15 13 12 12 13 14 18 18 23 25 25 nan nan nan nan nan nan nan nan nan nan nan nan
nan nan nan nan nan nan nan nan nan nan nan nan nan nan 27 31 31 25 26 26 28 25 26 26 24 24 26 25 24 23 23 21 20 19 20 20 20 26 31 38 43 41 40 35 41 36 36 37 38 38 39 37 35 34 33 32 34 34 31 28 22 22 19 17 14 13 13 14 18 21 22 25 25 nan nan nan nan nan nan nan nan nan nan nan nan
nan nan nan nan nan nan nan nan nan nan nan nan nan nan nan nan 31 31 29 28 28 30 30 29 27 23 26 26 26 27 25 24 22 19 18 19 17 17 19 25 32 38 43 41 34 38 35 28 26 31 40 43 39 36 36 33 32 34 33 37 30 25 nan nan 20 17 15 15 16 19 20 22 25 27 nan nan nan nan nan nan nan nan nan nan nan
nan nan nan nan nan nan nan nan nan nan nan nan nan nan nan nan nan nan nan 29 29 29 30 29 28 29 28 29 28 27 28 29 27 23 20 14 14 18 17 15 19 25 35 42 42 39 39 35 32 36 39 45 44 40 35 35 35 35 38 44 37 32 27 24 23 21 19 17 17 18 19 21 24 26 28 nan nan nan nan nan nan nan nan nan nan
nan nan nan nan nan nan nan nan nan nan nan nan nan nan nan nan nan nan nan nan nan nan 25 nan nan 33 nan 28 nan 28 29 29 29 25 23 15 nan 21 18 19 19 16 23 31 31 35 37 37 32 32 35 36 42 40 35 33 36 40 39 44 42 38 34 29 27 25 nan 22 23 21 20 20 23 25 28 30 nan nan nan nan nan nan nan nan nan
nan nan nan nan nan nan nan nan nan nan nan nan nan nan nan nan nan nan nan nan nan nan nan nan nan nan nan nan nan nan nan nan 30 27 nan 22 nan nan nan 25 23 21 19 22 22 23 30 36 33 27 27 31 37 36 36 24 31 38 47 45 41 42 39 35 31 29 28 nan nan 26 24 23 23 26 27 28 28 nan nan nan nan nan nan nan nan
nan nan nan nan nan nan nan nan nan nan nan nan nan nan nan nan nan nan nan nan nan nan nan nan nan nan nan nan nan nan nan nan nan nan nan nan nan nan nan nan nan nan nan nan nan nan nan 32 nan nan nan 29 31 33 35 28 20 35 36 44 44 42 40 38 nan nan nan nan nan 28 26 25 25 26 29 31 29 29 nan nan nan nan nan nan nan
nan nan nan nan nan nan nan nan nan nan nan nan nan nan nan nan nan nan nan nan nan nan nan nan nan nan nan nan nan nan nan nan nan nan nan nan nan nan nan nan nan nan nan nan nan nan nan nan nan nan nan 31 31 35 40 40 48 44 43 45 45 43 40 38 nan nan nan nan nan nan 28 26 25 26 28 31 32 31 30 30 nan nan nan nan nan
nan nan nan nan nan nan nan nan nan nan nan nan nan nan nan nan nan nan nan nan nan nan nan nan nan nan nan nan nan nan nan nan nan nan nan nan nan nan nan nan nan nan nan nan nan nan nan nan nan nan nan nan nan nan nan 39 47 50 48 46 45 45 43 nan nan nan nan nan nan nan nan nan 26 24 26 28 31 32 30 32 nan nan nan nan nan
nan nan nan nan nan nan nan nan nan nan nan nan nan nan nan nan nan nan nan nan nan nan nan nan nan nan nan nan nan nan nan nan nan nan nan nan nan nan nan nan nan nan nan nan nan nan nan nan nan nan nan nan nan nan 38 36 44 44 nan 38 38 nan nan nan nan nan 37 36 34 31 30 30 nan nan 28 29 30 34 35 35 nan nan nan nan nan
nan nan nan nan nan nan nan nan nan nan nan nan nan nan nan nan nan nan nan nan nan nan nan nan nan nan nan nan nan nan nan nan nan nan nan nan nan nan nan nan nan nan nan nan nan nan nan nan nan nan nan nan nan nan 39 39 42 nan nan 29 27 nan nan nan nan nan nan nan 32 31 30 30 31 31 nan nan 30 33 35 35 nan nan nan nan nan
nan nan nan nan nan nan nan nan nan nan nan nan nan nan nan nan nan nan nan nan nan nan nan nan nan nan nan nan nan nan nan nan nan nan nan nan nan nan nan nan nan nan nan nan nan nan nan nan nan nan nan nan nan nan nan nan 32 nan nan nan 26 30 nan nan nan nan nan nan nan nan nan nan nan nan nan nan nan nan 29 32 32 33 nan nan nan
21 22 nan nan nan nan nan nan nan nan nan nan nan nan nan nan nan nan nan nan nan nan nan nan nan nan nan nan nan nan nan nan nan nan nan nan nan nan nan nan nan nan nan nan nan nan nan nan nan nan nan nan nan nan nan nan nan nan nan nan nan nan 28 nan nan nan nan nan nan nan nan nan nan nan nan nan nan nan nan nan nan nan nan nan nan
21 22 nan nan nan nan nan nan nan nan nan nan nan nan nan nan nan nan nan nan nan nan nan nan nan nan nan nan nan nan nan nan nan nan nan nan nan nan nan nan nan nan nan nan nan nan nan nan nan nan nan nan nan nan nan nan nan nan nan nan nan nan nan nan nan nan nan nan nan nan nan nan nan nan nan nan nan nan nan nan nan nan nan nan nan
21 22 21 nan nan nan nan nan nan nan nan nan nan nan nan nan nan nan nan nan nan nan nan nan nan nan nan nan nan nan nan nan nan nan nan nan nan nan nan nan nan nan nan nan nan nan nan nan nan nan nan nan nan nan nan nan nan nan nan nan nan nan nan nan nan nan nan nan nan nan nan nan nan nan nan nan nan nan nan nan nan nan nan nan nan
20 20 19 19 nan nan nan nan nan nan nan nan nan nan nan nan nan nan nan nan nan nan nan nan nan nan nan nan nan nan nan nan nan nan nan nan nan nan nan nan nan nan nan nan nan nan nan nan nan nan nan nan nan nan nan nan nan nan nan nan nan nan nan nan nan nan nan nan nan nan nan nan nan nan nan nan nan nan nan nan nan nan nan nan nan
19 20 19 18 18 17 nan nan nan nan nan nan nan nan nan nan nan nan nan nan nan nan nan nan nan nan nan nan nan nan nan nan nan nan nan nan nan nan nan nan nan nan nan nan nan nan nan nan nan nan nan nan nan nan nan nan nan nan nan nan nan nan nan nan nan nan nan nan nan nan nan nan nan nan nan nan nan nan nan nan nan nan nan nan nan
16 18 18 18 17 17 nan nan nan nan nan nan nan nan nan nan nan nan nan nan nan nan nan nan nan nan nan nan nan nan nan nan nan nan nan nan nan nan nan nan nan nan nan nan nan nan nan nan nan nan nan nan nan nan nan nan nan nan nan nan nan nan nan nan nan nan nan nan nan nan nan nan nan nan nan nan nan nan nan nan nan nan nan nan nan
15 16 16 16 16 16 16 16 17 nan nan nan nan nan nan nan nan nan nan nan nan nan nan nan nan nan nan nan nan nan nan nan nan nan nan nan nan nan nan nan nan nan nan nan nan nan nan nan nan nan nan nan nan nan nan nan nan nan nan nan nan nan nan nan nan nan nan nan nan nan nan nan nan nan nan nan nan nan nan nan nan nan nan nan nan
nan nan nan nan 15 15 16 16 17 17 nan nan nan nan nan nan nan nan nan nan nan nan nan nan nan nan nan nan nan nan nan nan nan nan nan nan nan nan nan nan nan nan nan nan nan nan nan nan nan nan nan nan nan nan nan nan nan nan nan nan nan nan nan nan nan nan nan nan nan nan nan nan nan nan nan nan nan nan nan nan nan nan nan nan nan
24 20 18 15 15 15 15 16 16 17 17 nan nan nan nan nan nan nan nan nan nan nan nan nan nan nan nan nan nan nan nan nan nan nan nan nan nan nan nan nan nan nan nan nan nan nan nan nan nan nan nan nan nan nan nan nan nan nan nan nan nan nan nan nan nan nan nan nan nan nan nan nan nan nan nan nan nan nan nan nan nan nan nan nan nan
nan 26 19 17 17 16 17 16 16 17 18 18 nan nan nan nan nan nan nan nan nan nan nan nan nan nan nan nan nan nan nan nan nan nan nan nan nan nan nan nan nan nan nan nan nan nan nan nan nan nan nan nan nan nan nan nan nan nan nan nan nan nan nan nan nan nan nan nan nan nan nan nan nan nan nan nan nan nan nan nan nan nan nan nan nan
26 25 24 20 18 17 18 19 18 19 18 17 nan nan nan nan nan nan nan nan nan nan nan nan nan nan nan nan nan nan nan nan nan nan nan nan nan nan nan nan nan nan nan nan nan nan nan nan nan nan nan nan nan nan nan nan nan nan nan nan nan nan nan nan nan nan nan nan nan nan nan nan nan nan nan nan nan nan nan nan nan nan nan nan nan
25 27 26 23 26 nan 21 22 22 23 23 22 nan nan 27 29 nan nan nan nan nan nan nan nan nan nan nan nan nan nan nan nan nan nan nan nan nan nan nan nan nan nan nan nan nan nan nan nan nan nan nan nan nan nan nan nan nan nan nan nan nan nan nan nan nan nan nan nan nan nan nan nan nan nan nan nan nan nan nan nan nan nan nan nan nan
30 30 28 28 27 27 27 27 27 28 nan nan 27 30 33 35 36 37 nan nan nan nan nan nan nan nan nan nan nan nan nan nan nan nan nan nan nan nan nan nan nan nan nan nan nan nan nan nan nan nan nan nan nan nan nan nan nan nan nan nan nan nan nan nan nan nan nan nan nan nan nan nan nan nan nan nan nan nan nan nan nan nan nan nan nan
32 33 31 31 31 31 29 31 31 nan nan nan nan nan 38 40 42 nan nan nan nan nan nan nan nan nan nan nan nan nan nan nan nan nan nan nan nan nan nan nan nan nan nan nan nan nan nan nan nan nan nan nan nan nan nan nan nan nan nan nan nan nan nan nan nan nan nan nan nan nan nan nan nan nan nan nan nan nan nan nan nan nan nan nan nan
35 34 34 33 34 34 33 34 33 35 36 39 46 nan 47 47 44 nan nan nan nan nan nan nan nan nan nan nan nan nan nan nan nan nan nan nan nan nan nan nan nan nan nan nan nan nan nan nan nan nan nan nan nan nan nan nan nan nan nan nan nan nan nan nan nan nan nan nan nan nan nan nan nan nan nan nan nan nan 41 nan nan nan nan nan nan
41 40 38 37 36 37 41 39 36 43 nan 50 49 49 50 48 46 46 nan nan nan nan nan nan nan nan nan nan nan nan nan nan nan nan nan nan nan nan nan nan nan nan nan nan nan nan nan nan nan nan nan nan nan nan nan nan nan nan nan nan nan nan nan nan nan nan nan nan nan nan nan nan nan nan nan nan nan nan nan nan nan nan nan nan nan
44 43 42 41 40 39 41 41 41 47 nan nan nan 55 55 54 52 nan 49 nan nan nan nan nan nan nan nan nan nan nan nan nan nan nan nan nan nan nan nan nan nan nan nan nan nan nan nan nan nan nan nan nan nan nan nan nan nan nan nan nan nan nan nan nan nan nan nan nan nan nan nan nan nan nan nan nan nan nan nan nan nan nan nan nan nan
45 44 44 44 44 45 45 45 47 48 nan nan 58 58 60 59 56 52 51 nan nan nan nan nan nan nan nan nan nan nan nan nan nan nan nan nan nan nan nan nan nan nan nan nan nan nan nan nan nan nan nan nan nan nan nan nan nan nan nan nan nan nan nan nan nan nan nan nan nan nan nan nan nan nan nan nan nan nan nan nan nan nan nan nan nan
45 46 45 45 47 48 48 48 50 53 nan nan nan nan nan 61 60 nan nan nan nan nan nan nan nan nan nan nan nan nan nan nan nan nan nan nan nan nan nan nan nan nan nan nan nan nan nan nan nan nan nan nan nan nan nan nan nan nan nan nan nan nan nan nan nan nan nan nan nan nan nan nan nan nan nan nan nan nan nan nan nan nan nan nan nan
47 47 47 47 48 49 49 50 54 nan nan nan nan nan nan nan nan nan nan nan nan nan nan nan nan nan nan nan nan nan nan nan nan nan nan nan nan nan nan nan nan nan nan nan nan nan nan nan nan nan nan nan nan nan nan nan nan nan nan nan nan nan nan nan nan nan nan nan nan nan nan nan nan nan nan nan nan nan nan nan nan nan nan nan nan
48 48 48 48 48 50 50 51 58 nan nan nan nan nan nan nan nan nan nan nan nan nan nan nan nan nan nan nan nan nan nan nan nan nan nan nan nan nan nan nan nan nan nan nan nan nan nan nan nan nan nan nan nan nan nan nan nan nan nan nan nan nan nan nan nan nan nan nan nan nan nan nan nan nan nan nan nan nan nan nan nan nan nan nan nan
48 48 48 48 49 50 52 53 nan nan nan nan nan nan nan nan nan nan nan nan nan nan nan nan nan nan nan nan nan nan nan nan nan nan nan nan nan nan nan nan nan nan nan nan nan nan nan nan nan nan nan nan nan nan nan nan nan nan nan nan nan nan nan nan nan nan nan nan nan nan nan nan nan nan nan nan nan nan nan nan nan nan nan nan nan
47 47 48 49 49 49 50 nan nan nan nan nan nan nan nan nan nan nan nan nan nan nan nan nan nan nan nan nan nan nan nan nan nan nan nan nan nan nan nan nan nan nan nan nan nan nan nan nan nan nan nan nan nan nan nan nan nan nan nan nan nan nan nan nan nan nan nan nan nan nan nan nan nan nan nan nan nan nan nan nan nan nan nan nan nan
Wind_Direction
283 289 291 301 291 294 306 300 300 278 271 273 258 262 266 265 264 266 267 265 268 274 274 273 270 267 250 231 214 214 223 226 232 238 239 242 245 248 252 243 235 226 221 232 232 236 235 nan nan nan nan nan nan nan nan nan nan nan nan nan 250 261 nan nan nan nan nan nan nan nan nan nan nan nan nan nan nan nan nan nan nan nan nan nan nan
277 275 286 283 276 291 289 293 295 299 291 284 284 288 274 267 269 267 266 269 266 269 268 272 276 270 263 236 219 211 223 224 229 235 242 238 243 248 255 248 240 234 225 223 232 236 237 237 nan nan nan nan nan nan nan nan nan nan nan nan nan 250 258 nan nan nan nan nan nan nan nan nan nan nan nan nan nan nan nan nan nan nan nan nan nan
277 280 282 275 293 274 278 272 264 275 275 287 277 284 278 271 269 268 268 261 nan nan nan nan 276 275 267 247 224 218 216 224 227 232 239 243 245 248 251 253 245 239 234 227 219 230 240 238 236 nan nan nan nan nan nan nan nan nan nan nan nan nan nan nan nan nan nan nan nan nan nan nan nan nan nan nan nan nan nan nan nan nan nan nan nan
278 285 289 290 284 288 276 277 287 277 275 281 295 284 278 274 275 279 nan 264 nan nan nan nan nan nan 279 nan nan 221 217 221 223 231 233 242 241 247 248 247 253 246 239 237 229 223 232 241 240 238 243 nan nan nan nan nan nan nan nan nan nan nan nan 261 nan nan nan nan nan nan nan nan nan nan nan nan nan nan nan nan nan nan nan nan nan
280 282 280 283 285 287 289 292 292 288 287 283 278 275 272 267 262 252 nan nan nan nan nan nan 269 nan nan nan nan nan 221 222 225 228 233 237 239 242 250 249 249 253 251 239 239 235 230 237 245 243 242 nan nan nan nan nan nan nan nan nan nan nan nan 259 262 nan nan nan nan nan nan nan nan nan nan nan nan nan nan nan nan nan nan nan nan
281 282 282 280 284 287 289 288 287 291 285 281 279 276 272 267 260 nan nan nan nan nan nan nan nan nan 265 252 nan nan 218 221 227 230 233 235 238 236 239 249 250 246 246 253 245 239 239 237 244 248 246 247 243 nan nan nan nan nan nan nan nan nan nan nan 259 nan nan nan nan nan nan nan nan nan nan nan nan nan nan nan nan nan nan nan nan
282 282 283 281 284 288 287 285 283 283 283 279 273 272 271 264 263 nan nan nan nan nan nan nan nan nan 267 259 243 230 220 216 nan 230 235 235 232 236 237 232 248 251 248 248 251 251 246 244 245 246 250 254 249 249 249 nan nan nan nan nan nan nan nan nan nan 267 nan nan nan nan nan nan nan nan nan nan nan nan nan nan nan nan nan nan nan
281 282 283 283 281 281 283 280 281 280 281 275 267 268 269 262 264 259 267 nan 266 268 266 267 nan 266 264 262 256 237 226 219 219 220 230 236 237 236 238 238 239 245 254 252 252 256 261 255 252 247 248 254 260 256 254 251 nan nan nan nan nan nan nan nan nan 267 273 nan nan nan nan nan nan nan nan nan nan nan nan nan nan nan nan nan nan
275 278 278 281 280 278 278 277 280 279 277 273 265 265 271 277 260 248 257 256 263 nan 266 256 253 253 253 255 258 251 236 227 222 220 224 232 234 242 244 245 242 244 246 246 253 255 269 268 261 256 251 248 258 263 261 257 249 264 258 nan nan nan nan nan nan nan 271 274 nan nan nan nan nan nan nan nan nan nan nan nan nan nan nan nan nan
275 276 278 274 275 277 277 277 276 272 268 262 258 254 263 277 273 267 262 258 247 242 238 242 249 251 251 248 245 242 233 232 229 229 227 228 234 235 242 246 247 248 247 247 248 252 258 267 269 264 258 256 252 263 263 262 257 267 269 263 nan nan nan nan nan nan nan 273 276 nan nan nan nan nan nan nan nan nan nan nan nan nan nan nan nan
270 274 275 278 277 275 272 273 272 265 259 258 264 260 258 250 255 265 260 258 256 257 258 252 245 249 245 243 247 243 235 223 222 229 230 227 232 237 233 241 245 247 247 248 247 249 262 260 260 254 255 263 258 261 269 261 258 261 273 267 262 nan nan nan nan nan nan 273 279 278 nan nan nan nan nan nan nan nan nan nan nan nan nan nan nan
269 268 269 271 271 272 271 268 262 256 262 269 269 262 258 262 262 263 270 267 267 270 270 260 260 256 249 247 247 242 242 241 232 230 232 234 236 235 234 235 242 244 247 248 249 251 252 261 260 262 257 272 279 269 273 267 254 256 262 263 269 268 281 278 273 nan nan nan 276 276 275 nan nan nan nan nan nan nan nan nan nan nan nan nan nan
263 268 271 271 271 269 268 266 262 261 263 266 266 261 266 264 259 261 259 264 268 264 258 264 260 255 255 250 242 241 243 247 238 231 233 232 234 238 239 236 238 244 246 248 252 252 251 252 258 260 257 262 271 284 280 277 274 263 256 262 263 266 272 279 277 274 nan nan nan 278 279 nan nan nan nan nan nan nan nan nan nan nan nan nan nan
nan nan nan 263 267 270 267 267 269 274 278 273 263 269 268 266 266 260 252 256 261 259 265 263 261 255 250 250 250 247 248 244 241 240 241 232 231 233 231 231 233 240 245 246 248 251 252 253 251 249 251 254 268 265 265 269 269 274 273 265 263 264 263 272 280 276 274 nan nan 283 282 nan nan nan nan nan nan nan nan nan nan nan nan nan nan
nan nan nan nan nan nan 263 262 266 273 279 280 275 278 278 273 271 263 247 254 253 260 262 259 256 260 258 255 253 255 258 257 252 246 246 246 241 234 233 232 229 227 235 243 245 249 251 252 253 251 247 245 255 264 265 271 272 281 282 277 273 267 271 261 275 277 272 270 nan 282 283 288 nan nan nan nan nan nan nan nan nan nan nan nan nan
nan nan nan nan nan nan nan 266 266 270 274 279 281 273 270 274 268 256 252 252 256 252 261 258 258 265 265 261 260 262 259 265 255 251 250 243 241 237 236 232 231 233 233 231 231 246 248 248 253 252 251 248 246 252 261 262 273 283 286 283 280 275 278 277 266 272 278 266 273 279 281 286 nan nan nan nan nan nan nan nan nan nan nan nan nan
nan nan nan nan nan nan nan nan nan 268 269 269 267 265 266 261 258 257 262 265 257 253 250 256 254 253 254 262 260 260 259 255 247 253 247 249 244 240 238 237 237 237 232 240 237 227 233 245 249 250 253 251 249 248 245 250 261 264 271 282 286 283 283 279 280 272 271 278 276 279 281 285 286 nan nan nan nan nan nan nan nan nan nan nan nan
nan nan nan nan nan nan nan nan nan nan nan nan nan nan 264 267 269 263 259 260 256 249 250 256 259 258 262 259 255 256 260 252 247 250 251 255 244 241 238 238 237 236 236 232 234 236 232 224 238 250 251 250 251 250 250 250 251 258 258 263 277 281 280 275 276 276 271 266 277 284 282 286 287 nan nan nan nan nan nan nan nan nan nan nan nan
nan nan nan nan nan nan nan nan nan nan nan nan nan nan nan nan 261 262 261 260 258 254 252 252 251 255 264 261 256 254 256 259 261 264 254 257 258 254 246 238 239 237 235 232 231 233 231 235 229 241 241 245 244 247 249 251 255 255 260 268 277 277 nan nan 271 270 271 272 270 277 280 284 285 284 nan nan nan nan nan nan nan nan nan nan nan
nan nan nan nan nan nan nan nan nan nan nan nan nan nan nan nan nan nan nan 259 259 258 257 252 253 256 256 257 258 258 260 263 271 265 272 271 276 276 272 250 241 247 241 234 232 233 236 236 228 229 235 238 238 234 242 251 254 260 260 270 274 275 277 277 276 271 267 267 272 271 271 273 283 283 283 nan nan nan nan nan nan nan nan nan nan
nan nan nan nan nan nan nan nan nan nan nan nan nan nan nan nan nan nan nan nan nan nan 260 nan nan 250 nan 251 nan 261 264 268 267 269 269 272 nan 282 277 267 261 253 245 246 240 240 236 232 229 228 239 239 242 244 238 235 250 258 254 270 273 273 271 272 274 273 nan 267 262 267 271 269 273 284 286 285 nan nan nan nan nan nan nan nan nan
nan nan nan nan nan nan nan nan nan nan nan nan nan nan nan nan nan nan nan nan nan nan nan nan nan nan nan nan nan nan nan nan 272 272 nan 266 nan nan nan 281 284 281 278 265 268 258 239 237 241 240 240 242 242 239 246 244 235 239 244 252 266 271 269 270 270 269 269 nan nan 268 269 272 272 277 284 288 289 nan nan nan nan nan nan nan nan
nan nan nan nan nan nan nan nan nan nan nan nan nan nan nan nan nan nan nan nan nan nan nan nan nan nan nan nan nan nan nan nan nan nan nan nan nan nan nan nan nan nan nan nan nan nan nan 250 nan nan nan 245 243 238 249 256 260 259 258 259 261 265 269 270 nan nan nan nan nan 269 273 276 276 278 283 290 291 290 nan nan nan nan nan nan nan
nan nan nan nan nan nan nan nan nan nan nan nan nan nan nan nan nan nan nan nan nan nan nan nan nan nan nan nan nan nan nan nan nan nan nan nan nan nan nan nan nan nan nan nan nan nan nan nan nan nan nan 255 248 242 238 243 255 260 261 266 267 268 270 269 nan nan nan nan nan nan 268 271 274 276 280 285 290 292 294 296 nan nan nan nan nan
nan nan nan nan nan nan nan nan nan nan nan nan nan nan nan nan nan nan nan nan nan nan nan nan nan nan nan nan nan nan nan nan nan nan nan nan nan nan nan nan nan nan nan nan nan nan nan nan nan nan nan nan nan nan nan 245 250 251 255 269 272 271 271 nan nan nan nan nan nan nan nan nan 263 274 281 281 283 288 291 292 nan nan nan nan nan
nan nan nan nan nan nan nan nan nan nan nan nan nan nan nan nan nan nan nan nan nan nan nan nan nan nan nan nan nan nan nan nan nan nan nan nan nan nan nan nan nan nan nan nan nan nan nan nan nan nan nan nan nan nan 252 251 257 255 nan 259 269 nan nan nan nan nan 271 267 264 263 262 262 nan nan 260 267 276 281 287 287 nan nan nan nan nan
nan nan nan nan nan nan nan nan nan nan nan nan nan nan nan nan nan nan nan nan nan nan nan nan nan nan nan nan nan nan nan nan nan nan nan nan nan nan nan nan nan nan nan nan nan nan nan nan nan nan nan nan nan nan 255 253 260 nan nan 257 261 nan nan nan nan nan nan nan 266 264 263 263 264 268 nan nan 261 262 270 286 nan nan nan nan nan
nan nan nan nan nan nan nan nan nan nan nan nan nan nan nan nan nan nan nan nan nan nan nan nan nan nan nan nan nan nan nan nan nan nan nan nan nan nan nan nan nan nan nan nan nan nan nan nan nan nan nan nan nan nan nan nan 265 nan nan nan 259 269 nan nan nan nan nan nan nan nan nan nan nan nan nan nan nan nan 271 274 283 288 nan nan nan
284 286 nan nan nan nan nan nan nan nan nan nan nan nan nan nan nan nan nan nan nan nan nan nan nan nan nan nan nan nan nan nan nan nan nan nan nan nan nan nan nan nan nan nan nan nan nan nan nan nan nan nan nan nan nan nan nan nan nan nan nan nan 278 nan nan nan nan nan nan nan nan nan nan nan nan nan nan nan nan nan nan nan nan nan nan
287 287 nan nan nan nan nan nan nan nan nan nan nan nan nan nan nan nan nan nan nan nan nan nan nan nan nan nan nan nan nan nan nan nan nan nan nan nan nan nan nan nan nan nan nan nan nan nan nan nan nan nan nan nan nan nan nan nan nan nan nan nan nan nan nan nan nan nan nan nan nan nan nan nan nan nan nan nan nan nan nan nan nan nan nan
295 294 294 nan nan nan nan nan nan nan nan nan nan nan nan nan nan nan nan nan nan nan nan nan nan nan nan nan nan nan nan nan nan nan nan nan nan nan nan nan nan nan nan nan nan nan nan nan nan nan nan nan nan nan nan nan nan nan nan nan nan nan nan nan nan nan nan nan nan nan nan nan nan nan nan nan nan nan nan nan nan nan nan nan nan
297 302 302 300 nan nan nan nan nan nan nan nan nan nan nan nan nan nan nan nan nan nan nan nan nan nan nan nan nan nan nan nan nan nan nan nan nan nan nan nan nan nan nan nan nan nan nan nan nan nan nan nan nan nan nan nan nan nan nan nan nan nan nan nan nan nan nan nan nan nan nan nan nan nan nan nan nan nan nan nan nan nan nan nan nan
294 302 306 307 306 303 nan nan nan nan nan nan nan nan nan nan nan nan nan nan nan nan nan nan nan nan nan nan nan nan nan nan nan nan nan nan nan nan nan nan nan nan nan nan nan nan nan nan nan nan nan nan nan nan nan nan nan nan nan nan nan nan nan nan nan nan nan nan nan nan nan nan nan nan nan nan nan nan nan nan nan nan nan nan nan
286 298 304 302 302 305 nan nan nan nan nan nan nan nan nan nan nan nan nan nan nan nan nan nan nan nan nan nan nan nan nan nan nan nan nan nan nan nan nan nan nan nan nan nan nan nan nan nan nan nan nan nan nan nan nan nan nan nan nan nan nan nan nan nan nan nan nan nan nan nan nan nan nan nan nan nan nan nan nan nan nan nan nan nan nan
272 286 291 294 298 300 301 304 307 nan nan nan nan nan nan nan nan nan nan nan nan nan nan nan nan nan nan nan nan nan nan nan nan nan nan nan nan nan nan nan nan nan nan nan nan nan nan nan nan nan nan nan nan nan nan nan nan nan nan nan nan nan nan nan nan nan nan nan nan nan nan nan nan nan nan nan nan nan nan nan nan nan nan nan nan
nan nan nan nan 288 290 292 295 298 298 nan nan nan nan nan nan nan nan nan nan nan nan nan nan nan nan nan nan nan nan nan nan nan nan nan nan nan nan nan nan nan nan nan nan nan nan nan nan nan nan nan nan nan nan nan nan nan nan nan nan nan nan nan nan nan nan nan nan nan nan nan nan nan nan nan nan nan nan nan nan nan nan nan nan nan
274 263 261 269 277 281 280 286 290 291 291 nan nan nan nan nan nan nan nan nan nan nan nan nan nan nan nan nan nan nan nan nan nan nan nan nan nan nan nan nan nan nan nan nan nan nan nan nan nan nan nan nan nan nan nan nan nan nan nan nan nan nan nan nan nan nan nan nan nan nan nan nan nan nan nan nan nan nan nan nan nan nan nan nan nan
nan 275 274 265 267 274 277 279 281 284 284 284 nan nan nan nan nan nan nan nan nan nan nan nan nan nan nan nan nan nan nan nan nan nan nan nan nan nan nan nan nan nan nan nan nan nan nan nan nan nan nan nan nan nan nan nan nan nan nan nan nan nan nan nan nan nan nan nan nan nan nan nan nan nan nan nan nan nan nan nan nan nan nan nan nan
270 271 277 275 265 267 274 276 276 276 279 281 nan nan nan nan nan nan nan nan nan nan nan nan nan nan nan nan nan nan nan nan nan nan nan nan nan nan nan nan nan nan nan nan nan nan nan nan nan nan nan nan nan nan nan nan nan nan nan nan nan nan nan nan nan nan nan nan nan nan nan nan nan nan nan nan nan nan nan nan nan nan nan nan nan
273 274 275 277 278 nan 276 276 276 274 275 277 nan nan 282 283 nan nan nan nan nan nan nan nan nan nan nan nan nan nan nan nan nan nan nan nan nan nan nan nan nan nan nan nan nan nan nan nan nan nan nan nan nan nan nan nan nan nan nan nan nan nan nan nan nan nan nan nan nan nan nan nan nan nan nan nan nan nan nan nan nan nan nan nan nan
267 270 272 272 273 277 278 277 278 278 nan nan 277 280 281 283 281 281 nan nan nan nan nan nan nan nan nan nan nan nan nan nan nan nan nan nan nan nan nan nan nan nan nan nan nan nan nan nan nan nan nan nan nan nan nan nan nan nan nan nan nan nan nan nan nan nan nan nan nan nan nan nan nan nan nan nan nan nan nan nan nan nan nan nan nan
263 266 269 269 272 272 274 276 277 nan nan nan nan nan 286 283 282 nan nan nan nan nan nan nan nan nan nan nan nan nan nan nan nan nan nan nan nan nan nan nan nan nan nan nan nan nan nan nan nan nan nan nan nan nan nan nan nan nan nan nan nan nan nan nan nan nan nan nan nan nan nan nan nan nan nan nan nan nan nan nan nan nan nan nan nan
264 265 268 272 274 274 275 276 275 276 274 269 273 nan 281 283 283 nan nan nan nan nan nan nan nan nan nan nan nan nan nan nan nan nan nan nan nan nan nan nan nan nan nan nan nan nan nan nan nan nan nan nan nan nan nan nan nan nan nan nan nan nan nan nan nan nan nan nan nan nan nan nan nan nan nan nan nan nan 286 nan nan nan nan nan nan
264 265 267 270 272 275 273 272 271 267 nan 271 284 283 281 283 281 280 nan nan nan nan nan nan nan nan nan nan nan nan nan nan nan nan nan nan nan nan nan nan nan nan nan nan nan nan nan nan nan nan nan nan nan nan nan nan nan nan nan nan nan nan nan nan nan nan nan nan nan nan nan nan nan nan nan nan nan nan nan nan nan nan nan nan nan
262 264 266 269 271 272 274 277 274 274 nan nan nan 281 279 280 280 nan 281 nan nan nan nan nan nan nan nan nan nan nan nan nan nan nan nan nan nan nan nan nan nan nan nan nan nan nan nan nan nan nan nan nan nan nan nan nan nan nan nan nan nan nan nan nan nan nan nan nan nan nan nan nan nan nan nan nan nan nan nan nan nan nan nan nan nan
266 266 266 268 269 270 271 274 276 275 nan nan 282 281 279 278 278 276 279 nan nan nan nan nan nan nan nan nan nan nan nan nan nan nan nan nan nan nan nan nan nan nan nan nan nan nan nan nan nan nan nan nan nan nan nan nan nan nan nan nan nan nan nan nan nan nan nan nan nan nan nan nan nan nan nan nan nan nan nan nan nan nan nan nan nan
269 269 269 270 271 271 272 272 273 273 nan nan nan nan nan 278 276 nan nan nan nan nan nan nan nan nan nan nan nan nan nan nan nan nan nan nan nan nan nan nan nan nan nan nan nan nan nan nan nan nan nan nan nan nan nan nan nan nan nan nan nan nan nan nan nan nan nan nan nan nan nan nan nan nan nan nan nan nan nan nan nan nan nan nan nan
268 269 269 270 271 273 274 274 273 nan nan nan nan nan nan nan nan nan nan nan nan nan nan nan nan nan nan nan nan nan nan nan nan nan nan nan nan nan nan nan nan nan nan nan nan nan nan nan nan nan nan nan nan nan nan nan nan nan nan nan nan nan nan nan nan nan nan nan nan nan nan nan nan nan nan nan nan nan nan nan nan nan nan nan nan
268 269 269 269 269 271 275 275 275 nan nan nan nan nan nan nan nan nan nan nan nan nan nan nan nan nan nan nan nan nan nan nan nan nan nan nan nan nan nan nan nan nan nan nan nan nan nan nan nan nan nan nan nan nan nan nan nan nan nan nan nan nan nan nan nan nan nan nan nan nan nan nan nan nan nan nan nan nan nan nan nan nan nan nan nan
267 268 268 268 267 269 272 276 nan nan nan nan nan nan nan nan nan nan nan nan nan nan nan nan nan nan nan nan nan nan nan nan nan nan nan nan nan nan nan nan nan nan nan nan nan nan nan nan nan nan nan nan nan nan nan nan nan nan nan nan nan nan nan nan nan nan nan nan nan nan nan nan nan nan nan nan nan nan nan nan nan nan nan nan nan
265 265 266 267 267 268 270 nan nan nan nan nan nan nan nan nan nan nan nan nan nan nan nan nan nan nan nan nan nan nan nan nan nan nan nan nan nan nan nan nan nan nan nan nan nan nan nan nan nan nan nan nan nan nan nan nan nan nan nan nan nan nan nan nan nan nan nan nan nan nan nan nan nan nan nan nan nan nan nan nan nan nan nan nan nan